User: anonymous   Login
Location: Krasnoyarskiy Pitomnik
(51.1333°N, 71.6167°E)
Time: 16:34:31
(UTC+00:00)
Language:

Transit 2A - Orbit

View from above orbital plane
View from above orbital plane
View from above satellite
View from above satellite

Ground track
Ground track

The orbit data is extracted from the following two-line orbital elements,

1 00045U 60007A   24103.94561720  .00000349  00000-0  11316-3 0  9997
2 00045  66.6933 301.8013 0250530  17.8329 343.1366 14.34640407265917
Epoch (UTC): 12 April 2024 22:41:41
Eccentricity: 0.0250530
inclination: 66.6933°
perigee height: 597 km
apogee height: 955 km
right ascension of ascending node: 301.8013°
argument of perigee: 17.8329°
revolutions per day: 14.34640407
mean anomaly at epoch: 343.1366°
orbit number at epoch: 26591

The dashed part of the orbit path shows where the satellite is in the earth's shadow,  

DLR